Year,Month,Day,Hour,Minute,Value (Times are PST for temperature in C)
2018,01,28,00,00,7.20
2018,01,28,00,01,7.20
2018,01,28,00,02,7.20
2018,01,28,00,03,7.20
2018,01,28,00,04,7.20
2018,01,28,00,05,7.20
2018,01,28,00,06,7.20
2018,01,28,00,07,7.20
2018,01,28,00,08,7.20
2018,01,28,00,09,7.20
2018,01,28,00,10,7.20
2018,01,28,00,11,7.20
2018,01,28,00,12,7.20
2018,01,28,00,13,7.10
2018,01,28,00,14,7.10
2018,01,28,00,15,7.10
2018,01,28,00,16,7.10
2018,01,28,00,17,7.10
2018,01,28,00,18,7.10
2018,01,28,00,19,7.10
2018,01,28,00,20,7.10
2018,01,28,00,21,7.10
2018,01,28,00,22,7.10
2018,01,28,00,23,7.10
2018,01,28,00,24,7.10
2018,01,28,00,25,7.10
2018,01,28,00,26,7.10
2018,01,28,00,27,7.10
2018,01,28,00,28,7.00
2018,01,28,00,29,7.00
2018,01,28,00,30,7.00
2018,01,28,00,31,7.00
2018,01,28,00,32,7.00
2018,01,28,00,33,7.00
2018,01,28,00,34,7.00
2018,01,28,00,35,7.00
2018,01,28,00,36,7.00
2018,01,28,00,37,7.00
2018,01,28,00,38,7.00
2018,01,28,00,39,7.00
2018,01,28,00,40,7.00
2018,01,28,00,41,7.00
2018,01,28,00,42,6.90
2018,01,28,00,43,6.90
2018,01,28,00,44,6.90
2018,01,28,00,45,6.90
2018,01,28,00,46,6.90
2018,01,28,00,47,6.90
2018,01,28,00,48,6.90
2018,01,28,00,49,6.90
2018,01,28,00,50,6.90
2018,01,28,00,51,6.90
2018,01,28,00,52,6.90
2018,01,28,00,53,6.90
2018,01,28,00,54,6.90
2018,01,28,00,55,6.90
2018,01,28,00,56,6.90
2018,01,28,00,57,6.90
2018,01,28,00,58,6.90
2018,01,28,00,59,6.80
2018,01,28,01,00,6.80
2018,01,28,01,01,6.80
2018,01,28,01,02,6.80
2018,01,28,01,03,6.80
2018,01,28,01,04,6.80
2018,01,28,01,05,6.80
2018,01,28,01,06,6.80
2018,01,28,01,07,6.80
2018,01,28,01,08,6.80
2018,01,28,01,09,6.80
2018,01,28,01,10,6.80
2018,01,28,01,11,6.80
2018,01,28,01,12,6.80
2018,01,28,01,13,6.80
2018,01,28,01,14,6.80
2018,01,28,01,15,6.80
2018,01,28,01,16,6.80
2018,01,28,01,17,6.80
2018,01,28,01,18,6.80
2018,01,28,01,19,6.80
2018,01,28,01,20,6.80
2018,01,28,01,21,6.80
2018,01,28,01,22,6.80
2018,01,28,01,23,6.80
2018,01,28,01,24,6.80
2018,01,28,01,25,6.80
2018,01,28,01,26,6.80
2018,01,28,01,27,6.80
2018,01,28,01,28,6.80
2018,01,28,01,29,6.80
2018,01,28,01,30,6.80
2018,01,28,01,31,6.80
2018,01,28,01,32,6.80
2018,01,28,01,33,6.80
2018,01,28,01,34,6.80
2018,01,28,01,35,6.80
2018,01,28,01,36,6.80
2018,01,28,01,37,6.80
2018,01,28,01,38,6.80
2018,01,28,01,39,6.80
2018,01,28,01,40,6.80
2018,01,28,01,41,6.80
2018,01,28,01,42,6.80
2018,01,28,01,43,6.80
2018,01,28,01,44,6.80
2018,01,28,01,45,6.80
2018,01,28,01,46,6.80
2018,01,28,01,47,6.80
2018,01,28,01,48,6.80
2018,01,28,01,49,6.80
2018,01,28,01,50,6.80
2018,01,28,01,51,6.80
2018,01,28,01,52,6.80
2018,01,28,01,53,6.80
2018,01,28,01,54,6.80
2018,01,28,01,55,6.80
2018,01,28,01,56,6.80
2018,01,28,01,57,6.80
2018,01,28,01,58,6.80
2018,01,28,01,59,6.80
2018,01,28,02,00,6.80
2018,01,28,02,01,6.80
2018,01,28,02,02,6.80
2018,01,28,02,03,6.80
2018,01,28,02,04,6.80
2018,01,28,02,05,6.80
2018,01,28,02,06,6.80
2018,01,28,02,07,6.80
2018,01,28,02,08,6.80
2018,01,28,02,09,6.80
2018,01,28,02,10,6.80
2018,01,28,02,11,6.80
2018,01,28,02,12,6.80
2018,01,28,02,13,6.80
2018,01,28,02,14,6.80
2018,01,28,02,15,6.80
2018,01,28,02,16,6.80
2018,01,28,02,17,6.80
2018,01,28,02,18,6.80
2018,01,28,02,19,6.80
2018,01,28,02,20,6.80
2018,01,28,02,21,6.80
2018,01,28,02,22,6.80
2018,01,28,02,23,6.80
2018,01,28,02,24,6.80
2018,01,28,02,25,6.80
2018,01,28,02,26,6.80
2018,01,28,02,27,6.80
2018,01,28,02,28,6.80
2018,01,28,02,29,6.80
2018,01,28,02,30,6.80
2018,01,28,02,31,6.80
2018,01,28,02,32,6.80
2018,01,28,02,33,6.80
2018,01,28,02,34,6.80
2018,01,28,02,35,6.70
2018,01,28,02,36,6.70
2018,01,28,02,37,6.70
2018,01,28,02,38,6.70
2018,01,28,02,39,6.70
2018,01,28,02,40,6.70
2018,01,28,02,41,6.70
2018,01,28,02,42,6.70
2018,01,28,02,43,6.70
2018,01,28,02,44,6.70
2018,01,28,02,45,6.60
2018,01,28,02,46,6.60
2018,01,28,02,47,6.60
2018,01,28,02,48,6.60
2018,01,28,02,49,6.50
2018,01,28,02,50,6.50
2018,01,28,02,51,6.50
2018,01,28,02,52,6.50
2018,01,28,02,53,6.50
2018,01,28,02,54,6.40
2018,01,28,02,55,6.40
2018,01,28,02,56,6.40
2018,01,28,02,57,6.40
2018,01,28,02,58,6.50
2018,01,28,02,59,6.50
2018,01,28,03,00,6.50
2018,01,28,03,01,6.50
2018,01,28,03,02,6.50
2018,01,28,03,03,6.50
2018,01,28,03,04,6.50
2018,01,28,03,05,6.50
2018,01,28,03,06,6.60
2018,01,28,03,07,6.60
2018,01,28,03,08,6.60
2018,01,28,03,09,6.60
2018,01,28,03,10,6.60
2018,01,28,03,11,6.60
2018,01,28,03,12,6.70
2018,01,28,03,13,6.70
2018,01,28,03,14,6.70
2018,01,28,03,15,6.70
2018,01,28,03,16,6.70
2018,01,28,03,17,6.70
2018,01,28,03,18,6.70
2018,01,28,03,19,6.70
2018,01,28,03,20,6.70
2018,01,28,03,21,6.70
2018,01,28,03,22,6.70
2018,01,28,03,23,6.70
2018,01,28,03,24,6.70
2018,01,28,03,25,6.70
2018,01,28,03,26,6.60
2018,01,28,03,27,6.60
2018,01,28,03,28,6.60
2018,01,28,03,29,6.60
2018,01,28,03,30,6.60
2018,01,28,03,31,6.60
2018,01,28,03,32,6.60
2018,01,28,03,33,6.60
2018,01,28,03,34,6.60
2018,01,28,03,35,6.60
2018,01,28,03,36,6.60
2018,01,28,03,37,6.60
2018,01,28,03,38,6.60
2018,01,28,03,39,6.60
2018,01,28,03,40,6.50
2018,01,28,03,41,6.50
2018,01,28,03,42,6.50
2018,01,28,03,43,6.50
2018,01,28,03,44,6.50
2018,01,28,03,45,6.50
2018,01,28,03,46,6.40
2018,01,28,03,47,6.40
2018,01,28,03,48,6.40
2018,01,28,03,49,6.40
2018,01,28,03,50,6.40
2018,01,28,03,51,6.40
2018,01,28,03,52,6.40
2018,01,28,03,53,6.40
2018,01,28,03,54,6.40
2018,01,28,03,55,6.40
2018,01,28,03,56,6.40
2018,01,28,03,57,6.40
2018,01,28,03,58,6.40
2018,01,28,03,59,6.40
2018,01,28,04,00,6.40
2018,01,28,04,01,6.40
2018,01,28,04,02,6.40
2018,01,28,04,03,6.40
2018,01,28,04,04,6.40
2018,01,28,04,05,6.40
2018,01,28,04,06,6.40
2018,01,28,04,07,6.40
2018,01,28,04,08,6.40
2018,01,28,04,09,6.40
2018,01,28,04,10,6.40
2018,01,28,04,11,6.50
2018,01,28,04,12,6.50
2018,01,28,04,13,6.50
2018,01,28,04,14,6.50
2018,01,28,04,15,6.50
2018,01,28,04,16,6.40
2018,01,28,04,17,6.50
2018,01,28,04,18,6.40
2018,01,28,04,19,6.40
2018,01,28,04,20,6.40
2018,01,28,04,21,6.40
2018,01,28,04,22,6.40
2018,01,28,04,23,6.30
2018,01,28,04,24,6.30
2018,01,28,04,25,6.30
2018,01,28,04,26,6.30
2018,01,28,04,27,6.30
2018,01,28,04,28,6.30
2018,01,28,04,29,6.30
2018,01,28,04,30,6.30
2018,01,28,04,31,6.30
2018,01,28,04,32,6.30
2018,01,28,04,33,6.30
2018,01,28,04,34,6.30
2018,01,28,04,35,6.30
2018,01,28,04,36,6.30
2018,01,28,04,37,6.30
2018,01,28,04,38,6.30
2018,01,28,04,39,6.30
2018,01,28,04,40,6.30
2018,01,28,04,41,6.30
2018,01,28,04,42,6.30
2018,01,28,04,43,6.30
2018,01,28,04,44,6.30
2018,01,28,04,45,6.30
2018,01,28,04,46,6.30
2018,01,28,04,47,6.30
2018,01,28,04,48,6.30
2018,01,28,04,49,6.30
2018,01,28,04,50,6.30
2018,01,28,04,51,6.30
2018,01,28,04,52,6.30
2018,01,28,04,53,6.30
2018,01,28,04,54,6.30
2018,01,28,04,55,6.30
2018,01,28,04,56,6.30
2018,01,28,04,57,6.30
2018,01,28,04,58,6.30
2018,01,28,04,59,6.30
2018,01,28,05,00,6.30
2018,01,28,05,01,6.30
2018,01,28,05,02,6.30
2018,01,28,05,03,6.30
2018,01,28,05,04,6.30
2018,01,28,05,05,6.30
2018,01,28,05,06,6.30
2018,01,28,05,07,6.30
2018,01,28,05,08,6.30
2018,01,28,05,09,6.30
2018,01,28,05,10,6.30
2018,01,28,05,11,6.30
2018,01,28,05,12,6.30
2018,01,28,05,13,6.30
2018,01,28,05,14,6.40
2018,01,28,05,15,6.30
2018,01,28,05,16,6.30
2018,01,28,05,17,6.30
2018,01,28,05,18,6.30
2018,01,28,05,19,6.40
2018,01,28,05,20,6.40
2018,01,28,05,21,6.40
2018,01,28,05,22,6.40
2018,01,28,05,23,6.40
2018,01,28,05,24,6.40
2018,01,28,05,25,6.40
2018,01,28,05,26,6.40
2018,01,28,05,27,6.40
2018,01,28,05,28,6.30
2018,01,28,05,29,6.30
2018,01,28,05,30,6.30
2018,01,28,05,31,6.30
2018,01,28,05,32,6.30
2018,01,28,05,33,6.40
2018,01,28,05,34,6.40
2018,01,28,05,35,6.40
2018,01,28,05,36,6.40
2018,01,28,05,37,6.40
2018,01,28,05,38,6.40
2018,01,28,05,39,6.40
2018,01,28,05,40,6.40
2018,01,28,05,41,6.40
2018,01,28,05,42,6.40
2018,01,28,05,43,6.40
2018,01,28,05,44,6.40
2018,01,28,05,45,6.40
2018,01,28,05,46,6.40
2018,01,28,05,47,6.40
2018,01,28,05,48,6.40
2018,01,28,05,49,6.40
2018,01,28,05,50,6.40
2018,01,28,05,51,6.40
2018,01,28,05,52,6.40
2018,01,28,05,53,6.40
2018,01,28,05,54,6.40
2018,01,28,05,55,6.40
2018,01,28,05,56,6.40
2018,01,28,05,57,6.40
2018,01,28,05,58,6.40
2018,01,28,05,59,6.40
2018,01,28,06,00,6.40
2018,01,28,06,01,6.40
2018,01,28,06,02,6.40
2018,01,28,06,03,6.40
2018,01,28,09,09,7.30
2018,01,28,09,10,7.30
2018,01,28,09,11,7.30
2018,01,28,09,12,7.30
2018,01,28,09,13,7.30
2018,01,28,09,14,7.30
2018,01,28,09,15,7.30
2018,01,28,09,16,7.40
2018,01,28,09,17,7.30
2018,01,28,09,18,7.40
2018,01,28,09,19,7.40
2018,01,28,09,20,7.40
2018,01,28,09,21,7.40
2018,01,28,09,22,7.40
2018,01,28,09,23,7.40
2018,01,28,09,24,7.40
2018,01,28,09,25,7.40
2018,01,28,09,26,7.40
2018,01,28,09,27,7.40
2018,01,28,09,28,7.40
2018,01,28,09,29,7.40
2018,01,28,09,30,7.50
2018,01,28,09,31,7.50
2018,01,28,09,32,7.50
2018,01,28,09,33,7.50
2018,01,28,09,34,7.50
2018,01,28,09,35,7.50
2018,01,28,09,36,7.50
2018,01,28,09,37,7.50
2018,01,28,09,38,7.50
2018,01,28,09,39,7.50
2018,01,28,09,40,7.60
2018,01,28,09,41,7.60
2018,01,28,09,42,7.60
2018,01,28,09,43,7.60
2018,01,28,09,44,7.60
2018,01,28,09,45,7.60
2018,01,28,09,46,7.60
2018,01,28,09,47,7.60
2018,01,28,09,48,7.60
2018,01,28,09,49,7.60
2018,01,28,09,50,7.60
2018,01,28,09,51,7.60
2018,01,28,09,52,7.60
2018,01,28,09,53,7.60
2018,01,28,09,54,7.60
2018,01,28,09,55,7.60
2018,01,28,09,56,7.60
2018,01,28,09,57,7.60
2018,01,28,09,58,7.60
2018,01,28,09,59,7.60
2018,01,28,10,00,7.60
2018,01,28,10,01,7.60
2018,01,28,10,02,7.60
2018,01,28,10,03,7.70
2018,01,28,10,04,7.60
2018,01,28,10,05,7.70
2018,01,28,10,06,7.70
2018,01,28,10,07,7.70
2018,01,28,10,08,7.70
2018,01,28,10,09,7.70
2018,01,28,10,10,7.70
2018,01,28,10,11,7.70
2018,01,28,10,12,7.70
2018,01,28,10,13,7.70
2018,01,28,10,14,7.70
2018,01,28,10,15,7.70
2018,01,28,10,16,7.70
2018,01,28,10,17,7.70
2018,01,28,10,18,7.70
2018,01,28,10,19,7.70
2018,01,28,10,20,7.70
2018,01,28,10,21,7.70
2018,01,28,10,22,7.70
2018,01,28,10,23,7.70
2018,01,28,10,24,7.70
2018,01,28,10,25,7.70
2018,01,28,10,26,7.70
2018,01,28,10,27,7.70
2018,01,28,10,28,7.70
2018,01,28,10,29,7.70
2018,01,28,10,30,7.70
2018,01,28,10,31,7.70
2018,01,28,10,32,7.70
2018,01,28,10,33,7.70
2018,01,28,10,34,7.70
2018,01,28,10,35,7.70
2018,01,28,10,36,7.70
2018,01,28,10,37,7.70
2018,01,28,10,38,7.70
2018,01,28,10,39,7.70
2018,01,28,10,40,7.70
2018,01,28,10,41,7.70
2018,01,28,10,42,7.70
2018,01,28,10,43,7.70
2018,01,28,10,44,7.70
2018,01,28,10,45,7.70
2018,01,28,10,46,7.70
2018,01,28,10,47,7.70
2018,01,28,10,48,7.70
2018,01,28,10,49,7.70
2018,01,28,10,50,7.70
2018,01,28,10,51,7.70
2018,01,28,10,52,7.70
2018,01,28,10,53,7.70
2018,01,28,10,54,7.70
2018,01,28,10,55,7.70
2018,01,28,10,56,7.70
2018,01,28,10,57,7.70
2018,01,28,10,58,7.70
2018,01,28,10,59,7.70
2018,01,28,11,00,7.70
2018,01,28,11,01,7.70
2018,01,28,11,02,7.70
2018,01,28,11,03,7.70
2018,01,28,11,04,7.70
2018,01,28,11,05,7.70
2018,01,28,11,06,7.70
2018,01,28,11,07,7.70
2018,01,28,11,08,7.70
2018,01,28,11,09,7.70
2018,01,28,11,10,7.70
2018,01,28,11,11,7.70
2018,01,28,11,12,7.70
2018,01,28,11,13,7.70
2018,01,28,11,14,7.70
2018,01,28,11,15,7.70
2018,01,28,11,16,7.70
2018,01,28,11,17,7.70
2018,01,28,11,18,7.70
2018,01,28,11,19,7.70
2018,01,28,11,20,7.80
2018,01,28,11,21,7.80
2018,01,28,11,22,7.80
2018,01,28,11,23,7.80
2018,01,28,11,24,7.80
2018,01,28,11,25,7.80
2018,01,28,11,26,7.80
2018,01,28,11,27,7.80
2018,01,28,11,28,7.80
2018,01,28,11,29,7.80
2018,01,28,11,30,7.80
2018,01,28,11,31,7.80
2018,01,28,11,32,7.80
2018,01,28,11,33,7.80
2018,01,28,11,34,7.80
2018,01,28,11,35,7.80
2018,01,28,11,36,7.70
2018,01,28,11,37,7.70
2018,01,28,11,38,7.70
2018,01,28,11,39,7.70
2018,01,28,11,40,7.70
2018,01,28,11,41,7.70
2018,01,28,11,42,7.70
2018,01,28,11,43,7.70
2018,01,28,11,44,7.60
2018,01,28,11,45,7.60
2018,01,28,11,46,7.60
2018,01,28,11,47,7.60
2018,01,28,11,48,7.60
2018,01,28,11,49,7.60
2018,01,28,11,50,7.50
2018,01,28,11,51,7.50
2018,01,28,11,52,7.50
2018,01,28,11,53,7.50
2018,01,28,11,54,7.40
2018,01,28,11,55,7.40
2018,01,28,11,56,7.40
2018,01,28,11,57,7.40
2018,01,28,11,58,7.40
2018,01,28,11,59,7.40
2018,01,28,12,00,7.40
2018,01,28,12,01,7.30
2018,01,28,12,02,7.30
2018,01,28,12,03,7.30
2018,01,28,12,04,7.30
2018,01,28,12,05,7.30
2018,01,28,12,06,7.30
2018,01,28,12,07,7.30
2018,01,28,12,08,7.30
2018,01,28,12,09,7.30
2018,01,28,12,10,7.30
2018,01,28,12,11,7.30
2018,01,28,12,12,7.30
2018,01,28,12,13,7.20
2018,01,28,12,14,7.20
2018,01,28,12,15,7.20
2018,01,28,12,16,7.20
2018,01,28,12,17,7.20
2018,01,28,12,18,7.20
2018,01,28,12,19,7.20
2018,01,28,12,20,7.20
2018,01,28,12,21,7.20
2018,01,28,12,22,7.20
2018,01,28,12,23,7.20
2018,01,28,12,24,7.20
2018,01,28,12,25,7.20
2018,01,28,12,26,7.20
2018,01,28,12,27,7.20
2018,01,28,12,28,7.20
2018,01,28,12,29,7.20
2018,01,28,12,30,7.20
2018,01,28,12,31,7.20
2018,01,28,12,32,7.20
2018,01,28,12,33,7.20
2018,01,28,12,34,7.20
2018,01,28,12,35,7.20
2018,01,28,12,36,7.20
2018,01,28,12,37,7.20
2018,01,28,12,38,7.20
2018,01,28,12,39,7.20
2018,01,28,12,40,7.20
2018,01,28,12,41,7.20
2018,01,28,12,42,7.20
2018,01,28,12,43,7.20
2018,01,28,12,44,7.20
2018,01,28,12,45,7.20
2018,01,28,12,46,7.20
2018,01,28,12,47,7.20
2018,01,28,12,48,7.20
2018,01,28,12,49,7.20
2018,01,28,12,50,7.20
2018,01,28,12,51,7.20
2018,01,28,12,52,7.30
2018,01,28,12,53,7.30
2018,01,28,12,54,7.30
2018,01,28,12,55,7.30
2018,01,28,12,56,7.30
2018,01,28,12,57,7.30
2018,01,28,12,58,7.30
2018,01,28,12,59,7.30
2018,01,28,13,00,7.30
2018,01,28,13,01,7.30
2018,01,28,13,02,7.30
2018,01,28,13,03,7.30
2018,01,28,13,04,7.30
2018,01,28,13,05,7.30
2018,01,28,13,06,7.30
2018,01,28,13,07,7.30
2018,01,28,13,08,7.30
2018,01,28,13,09,7.30
2018,01,28,13,10,7.30
2018,01,28,13,11,7.30
2018,01,28,13,12,7.30
2018,01,28,13,13,7.30
2018,01,28,13,14,7.30
2018,01,28,13,15,7.30
2018,01,28,13,16,7.30
2018,01,28,13,17,7.30
2018,01,28,13,18,7.30
2018,01,28,13,19,7.30
2018,01,28,13,20,7.30
2018,01,28,13,21,7.30
2018,01,28,13,22,7.30
2018,01,28,13,23,7.30
2018,01,28,13,24,7.30
2018,01,28,13,25,7.30
2018,01,28,13,26,7.30
2018,01,28,13,27,7.30
2018,01,28,13,28,7.30
2018,01,28,13,29,7.40
2018,01,28,13,30,7.40
2018,01,28,13,31,7.40
2018,01,28,13,32,7.40
2018,01,28,13,33,7.40
2018,01,28,13,34,7.40
2018,01,28,13,35,7.40
2018,01,28,13,36,7.40
2018,01,28,13,37,7.40
2018,01,28,13,38,7.40
2018,01,28,13,39,7.40
2018,01,28,13,40,7.50
2018,01,28,13,41,7.50
2018,01,28,13,42,7.50
2018,01,28,13,43,7.50
2018,01,28,13,44,7.50
2018,01,28,13,45,7.50
2018,01,28,13,46,7.50
2018,01,28,13,47,7.50
2018,01,28,13,48,7.50
2018,01,28,13,49,7.50
2018,01,28,13,50,7.60
2018,01,28,13,51,7.60
2018,01,28,13,52,7.60
2018,01,28,13,53,7.60
2018,01,28,13,54,7.60
2018,01,28,13,55,7.60
2018,01,28,13,56,7.60
2018,01,28,13,57,7.60
2018,01,28,13,58,7.60
2018,01,28,13,59,7.60
2018,01,28,14,00,7.60
2018,01,28,14,01,7.60
2018,01,28,14,02,7.60
2018,01,28,14,03,7.60
2018,01,28,14,04,7.60
2018,01,28,14,05,7.60
2018,01,28,14,06,7.60
2018,01,28,14,07,7.60
2018,01,28,14,08,7.60
2018,01,28,14,09,7.60
2018,01,28,14,10,7.60
2018,01,28,14,11,7.60
2018,01,28,14,12,7.60
2018,01,28,14,13,7.70
2018,01,28,14,14,7.70
2018,01,28,14,15,7.70
2018,01,28,14,16,7.70
2018,01,28,14,17,7.70
2018,01,28,14,18,7.70
2018,01,28,14,19,7.70
2018,01,28,14,20,7.70
2018,01,28,14,21,7.70
2018,01,28,14,22,7.70
2018,01,28,14,23,7.70
2018,01,28,14,24,7.70
2018,01,28,14,25,7.70
2018,01,28,14,26,7.70
2018,01,28,14,27,7.70
2018,01,28,14,28,7.70
2018,01,28,14,29,7.70
2018,01,28,14,30,7.70
2018,01,28,14,31,7.70
2018,01,28,14,32,7.70
2018,01,28,14,33,7.70
2018,01,28,14,34,7.70
2018,01,28,14,35,7.70
2018,01,28,14,36,7.70
2018,01,28,14,37,7.70
2018,01,28,14,38,7.70
2018,01,28,14,39,7.70
2018,01,28,14,40,7.70
2018,01,28,14,41,7.70
2018,01,28,14,42,7.70
2018,01,28,14,43,7.70
2018,01,28,14,44,7.70
2018,01,28,14,45,7.70
2018,01,28,14,46,7.70
2018,01,28,14,47,7.70
2018,01,28,14,48,7.70
2018,01,28,14,49,7.70
2018,01,28,14,50,7.70
2018,01,28,14,51,7.70
2018,01,28,14,52,7.70
2018,01,28,14,53,7.70
2018,01,28,14,54,7.70
2018,01,28,14,55,7.70
2018,01,28,14,56,7.70
2018,01,28,14,57,7.70
2018,01,28,14,58,7.70
2018,01,28,14,59,7.70
2018,01,28,15,00,7.70
2018,01,28,15,01,7.70
2018,01,28,15,02,7.70
2018,01,28,15,03,7.70
2018,01,28,15,04,7.70
2018,01,28,15,05,7.70
2018,01,28,15,06,7.70
2018,01,28,15,07,7.70
2018,01,28,15,08,7.80
2018,01,28,15,09,7.80
2018,01,28,15,10,7.80
2018,01,28,15,11,7.80
2018,01,28,15,12,7.80
2018,01,28,15,13,7.80
2018,01,28,15,14,7.80
2018,01,28,15,15,7.80
2018,01,28,15,16,7.80
2018,01,28,15,17,7.80
2018,01,28,15,18,7.80
2018,01,28,15,19,7.80
2018,01,28,15,20,7.80
2018,01,28,15,21,7.80
2018,01,28,15,22,7.80
2018,01,28,15,23,7.80
2018,01,28,15,24,7.80
2018,01,28,15,25,7.80
2018,01,28,15,26,7.80
2018,01,28,15,27,7.80
2018,01,28,15,28,7.80
2018,01,28,15,29,7.80
2018,01,28,15,30,7.80
2018,01,28,15,31,7.80
2018,01,28,15,32,7.80
2018,01,28,15,33,7.80
2018,01,28,15,34,7.80
2018,01,28,15,35,7.80
2018,01,28,15,36,7.80
2018,01,28,15,37,7.80
2018,01,28,15,38,7.80
2018,01,28,15,39,7.80
2018,01,28,15,40,7.80
2018,01,28,15,41,7.80
2018,01,28,15,42,7.80
2018,01,28,15,43,7.80
2018,01,28,15,44,7.80
2018,01,28,15,45,7.80
2018,01,28,15,46,7.80
2018,01,28,15,47,7.80
2018,01,28,15,48,7.80
2018,01,28,15,49,7.80
2018,01,28,15,50,7.90
2018,01,28,15,51,7.80
2018,01,28,15,52,7.80
2018,01,28,15,53,7.80
2018,01,28,15,54,7.80
2018,01,28,15,55,7.80
2018,01,28,15,56,7.90
2018,01,28,15,57,7.80
2018,01,28,15,58,7.80
2018,01,28,15,59,7.80
2018,01,28,16,00,7.80
2018,01,28,16,01,7.90
2018,01,28,16,02,7.80
2018,01,28,16,03,7.90
2018,01,28,16,04,7.90
2018,01,28,16,05,7.90
2018,01,28,16,06,7.90
2018,01,28,16,07,7.90
2018,01,28,16,08,7.90
2018,01,28,16,09,7.90
2018,01,28,16,10,7.90
2018,01,28,16,11,7.90
2018,01,28,16,12,7.90
2018,01,28,16,13,7.90
2018,01,28,16,14,7.90
2018,01,28,16,15,7.90
2018,01,28,16,16,7.90
2018,01,28,16,17,7.90
2018,01,28,16,18,7.90
2018,01,28,16,19,7.90
2018,01,28,16,20,7.90
2018,01,28,16,21,8.00
2018,01,28,16,22,8.00
2018,01,28,16,23,8.00
2018,01,28,16,24,8.00
2018,01,28,16,25,8.00
2018,01,28,16,26,8.00
2018,01,28,16,27,8.00
2018,01,28,16,28,8.00
2018,01,28,16,29,8.00
2018,01,28,16,30,8.00
2018,01,28,16,31,8.10
2018,01,28,16,32,8.10
2018,01,28,16,33,8.10
2018,01,28,16,34,8.10
2018,01,28,16,35,8.10
2018,01,28,16,36,8.10
2018,01,28,16,37,8.10
2018,01,28,16,38,8.10
2018,01,28,16,39,8.10
2018,01,28,16,40,8.10
2018,01,28,16,41,8.10
2018,01,28,16,42,8.10
2018,01,28,16,43,8.10
2018,01,28,16,44,8.10
2018,01,28,16,45,8.10
2018,01,28,16,46,8.10
2018,01,28,16,47,8.10
2018,01,28,16,48,8.10
2018,01,28,16,49,8.10
2018,01,28,16,50,8.10
2018,01,28,16,51,8.20
2018,01,28,16,52,8.20
2018,01,28,16,53,8.20
2018,01,28,16,54,8.20
2018,01,28,16,55,8.20
2018,01,28,16,56,8.20
2018,01,28,16,57,8.20
2018,01,28,16,58,8.20
2018,01,28,16,59,8.20
2018,01,28,17,00,8.20
2018,01,28,17,01,8.20
2018,01,28,17,02,8.20
2018,01,28,17,03,8.20
2018,01,28,17,04,8.20
2018,01,28,17,05,8.20
2018,01,28,17,06,8.20
2018,01,28,17,07,8.20
2018,01,28,17,08,8.20
2018,01,28,17,09,8.20
2018,01,28,17,10,8.20
2018,01,28,17,11,8.30
2018,01,28,17,12,8.30
2018,01,28,17,13,8.30
2018,01,28,17,14,8.30
2018,01,28,17,15,8.30
2018,01,28,17,16,8.30
2018,01,28,17,17,8.30
2018,01,28,17,18,8.30
2018,01,28,17,19,8.30
2018,01,28,17,20,8.30
2018,01,28,17,21,8.30
2018,01,28,17,22,8.30
2018,01,28,17,23,8.30
2018,01,28,17,24,8.30
2018,01,28,17,25,8.30
2018,01,28,17,26,8.30
2018,01,28,17,27,8.30
2018,01,28,17,28,8.30
2018,01,28,17,29,8.30
2018,01,28,17,30,8.30
2018,01,28,17,31,8.30
2018,01,28,17,32,8.20
2018,01,28,17,33,8.30
2018,01,28,17,34,8.20
2018,01,28,17,35,8.20
2018,01,28,17,36,8.20
2018,01,28,17,37,8.20
2018,01,28,17,38,8.20
2018,01,28,17,39,8.20
2018,01,28,17,40,8.20
2018,01,28,17,41,8.20
2018,01,28,17,42,8.20
2018,01,28,17,43,8.20
2018,01,28,17,44,8.20
2018,01,28,17,45,8.20
2018,01,28,17,46,8.20
2018,01,28,17,47,8.20
2018,01,28,17,48,8.10
2018,01,28,17,49,8.10
2018,01,28,17,50,8.10
2018,01,28,17,51,8.00
2018,01,28,17,52,8.00
2018,01,28,17,53,7.90
2018,01,28,17,54,7.90
2018,01,28,17,55,7.90
2018,01,28,17,56,7.80
2018,01,28,17,57,7.80
2018,01,28,17,58,7.80
2018,01,28,17,59,7.80
2018,01,28,18,00,7.80
2018,01,28,18,01,7.80
2018,01,28,18,02,7.80
2018,01,28,18,03,7.70
2018,01,28,18,04,7.70
2018,01,28,18,05,7.70
2018,01,28,18,06,7.70
2018,01,28,18,07,7.70
2018,01,28,18,08,7.70
2018,01,28,18,09,7.70
2018,01,28,18,10,7.70
2018,01,28,18,11,7.70
2018,01,28,18,12,7.70
2018,01,28,18,13,7.70
2018,01,28,18,14,7.70
2018,01,28,18,15,7.60
2018,01,28,18,16,7.60
2018,01,28,18,17,7.60
2018,01,28,18,18,7.60
2018,01,28,18,19,7.60
2018,01,28,18,20,7.60
2018,01,28,18,21,7.60
2018,01,28,18,22,7.60
2018,01,28,18,23,7.60
2018,01,28,18,24,7.60
2018,01,28,18,25,7.60
2018,01,28,18,26,7.70
2018,01,28,18,27,7.70
2018,01,28,18,28,7.70
2018,01,28,18,29,7.70
2018,01,28,18,30,7.70
2018,01,28,18,31,7.70
2018,01,28,18,32,7.70
2018,01,28,18,33,7.70
2018,01,28,18,34,7.70
2018,01,28,18,35,7.70
2018,01,28,18,36,7.70
2018,01,28,18,37,7.70
2018,01,28,18,38,7.70
2018,01,28,18,39,7.70
2018,01,28,18,40,7.80
2018,01,28,18,41,7.80
2018,01,28,18,42,7.80
2018,01,28,18,43,7.80
2018,01,28,18,44,7.80
2018,01,28,18,45,7.80
2018,01,28,18,46,7.80
2018,01,28,18,47,7.80
2018,01,28,18,48,7.80
2018,01,28,18,49,7.80
2018,01,28,18,50,7.90
2018,01,28,18,51,7.90
2018,01,28,18,52,7.90
2018,01,28,18,53,7.90
2018,01,28,18,54,7.90
2018,01,28,18,55,7.90
2018,01,28,18,56,7.90
2018,01,28,18,57,7.90
2018,01,28,18,58,7.90
2018,01,28,18,59,7.90
2018,01,28,19,00,7.90
2018,01,28,19,01,7.90
2018,01,28,19,02,7.90
2018,01,28,19,03,7.90
2018,01,28,19,04,7.90
2018,01,28,19,05,7.90
2018,01,28,19,06,7.90
2018,01,28,19,07,7.90
2018,01,28,19,08,8.00
2018,01,28,19,09,8.00
2018,01,28,19,10,8.00
2018,01,28,19,11,8.00
2018,01,28,19,12,8.00
2018,01,28,19,13,8.00
2018,01,28,19,14,8.00
2018,01,28,19,15,8.00
2018,01,28,19,16,8.10
2018,01,28,19,17,8.10
2018,01,28,19,18,8.10
2018,01,28,19,19,8.10
2018,01,28,19,20,8.10
2018,01,28,19,21,8.10
2018,01,28,19,22,8.10
2018,01,28,19,23,8.10
2018,01,28,19,24,8.20
2018,01,28,19,25,8.20
2018,01,28,19,26,8.20
2018,01,28,19,27,8.20
2018,01,28,19,28,8.20
2018,01,28,19,29,8.30
2018,01,28,19,30,8.30
2018,01,28,19,31,8.30
2018,01,28,19,32,8.30
2018,01,28,19,33,8.30
2018,01,28,19,34,8.40
2018,01,28,19,35,8.40
2018,01,28,19,36,8.40
2018,01,28,19,37,8.40
2018,01,28,19,38,8.40
2018,01,28,19,39,8.40
2018,01,28,19,40,8.50
2018,01,28,19,41,8.50
2018,01,28,19,42,8.50
2018,01,28,19,43,8.50
2018,01,28,19,44,8.60
2018,01,28,19,45,8.60
2018,01,28,19,46,8.60
2018,01,28,19,47,8.60
2018,01,28,19,48,8.60
2018,01,28,19,49,8.70
2018,01,28,19,50,8.70
2018,01,28,19,51,8.70
2018,01,28,19,52,8.70
2018,01,28,19,53,8.70
2018,01,28,19,54,8.70
2018,01,28,19,55,8.70
2018,01,28,19,56,8.70
2018,01,28,19,57,8.70
2018,01,28,19,58,8.70
2018,01,28,19,59,8.70
2018,01,28,20,00,8.70
2018,01,28,20,01,8.70
2018,01,28,20,02,8.70
2018,01,28,20,03,8.70
2018,01,28,20,04,8.70
2018,01,28,20,05,8.70
2018,01,28,20,06,8.70
2018,01,28,20,07,8.70
2018,01,28,20,08,8.60
2018,01,28,20,09,8.60
2018,01,28,20,10,8.60
2018,01,28,20,11,8.60
2018,01,28,20,12,8.60
2018,01,28,20,13,8.60
2018,01,28,20,14,8.60
2018,01,28,20,15,8.50
2018,01,28,20,16,8.50
2018,01,28,20,17,8.50
2018,01,28,20,18,8.50
2018,01,28,20,19,8.50
2018,01,28,20,20,8.50
2018,01,28,20,21,8.50
2018,01,28,20,22,8.40
2018,01,28,20,23,8.40
2018,01,28,20,24,8.40
2018,01,28,20,25,8.40
2018,01,28,20,26,8.40
2018,01,28,20,27,8.40
2018,01,28,20,28,8.40
2018,01,28,20,29,8.40
2018,01,28,20,30,8.40
2018,01,28,20,31,8.40
2018,01,28,20,32,8.40
2018,01,28,20,33,8.40
2018,01,28,20,34,8.40
2018,01,28,20,35,8.40
2018,01,28,20,36,8.40
2018,01,28,20,37,8.40
2018,01,28,20,38,8.40
2018,01,28,20,39,8.40
2018,01,28,20,40,8.30
2018,01,28,20,41,8.40
2018,01,28,20,42,8.40
2018,01,28,20,43,8.40
2018,01,28,20,44,8.40
2018,01,28,20,45,8.40
2018,01,28,20,46,8.40
2018,01,28,20,47,8.40
2018,01,28,20,48,8.40
2018,01,28,20,49,8.40
2018,01,28,20,50,8.50
2018,01,28,20,51,8.40
2018,01,28,20,52,8.50
2018,01,28,20,53,8.50
2018,01,28,20,54,8.50
2018,01,28,20,55,8.50
2018,01,28,20,56,8.50
2018,01,28,20,57,8.50
2018,01,28,20,58,8.50
2018,01,28,20,59,8.50
2018,01,28,21,00,8.50
2018,01,28,21,01,8.50
2018,01,28,21,02,8.40
2018,01,28,21,03,8.40
2018,01,28,21,04,8.40
2018,01,28,21,05,8.40
2018,01,28,21,06,8.40
2018,01,28,21,07,8.40
2018,01,28,21,08,8.40
2018,01,28,21,09,8.40
2018,01,28,21,10,8.40
2018,01,28,21,11,8.40